Regional Weather Roundup
Issued by NWS

Home | Current Version | Previous Version | Text Only | Print | Product List | Glossary On
Versions: 1 2 3 4 5 6 7 8 9 10 11 12 13 14 15 16 17 18 19 20 21 22 23 24 25 26 27 28 29 30 31 32 33 34 35 36 37 38 39 40 41 42 43 44 45 46 47 48 49 50
000
ASUS43 KDTX 270110
RWRMI
MICHIGAN HOURLY REGIONAL WEATHER ROUNDUP
NATIONAL WEATHER SERVICE DETROIT/PONTIAC MI
900 PM EDT TUE AUG 26 2014

NOTE: "FAIR" INDICATES FEW OR NO CLOUDS BELOW 12,000 FEET WITH NO
SIGNIFICANT WEATHER AND/OR OBSTRUCTION TO VISIBILITY.

MIZ047>049-052>055-059>063-066>070-074>076-081>083-270200-
SOUTHEAST LOWER MICHIGAN

CITY           SKY/WX    TMP DP  RH WIND       PRES   REMARKS
ADRIAN         CLOUDY    74  69  85 CALM      30.08R
ALMA           CLEAR     73  67  82 W5        30.06R
ANN ARBOR      MOCLDY    71  68  90 NW3       30.07R
BAD AXE        CLOUDY    67  62  82 NE6       30.05R
DETROIT CITY   MOCLDY    73  69  87 SW8       30.03S
DETROIT        MOCLDY    72  69  90 W7        30.06R
FLINT          MOCLDY    72  66  81 SW5       30.06R
GROSSE ILE     MOCLDY    72  70  94 W3        30.04R
HILLSDALE      MOCLDY    74  73  97 CALM      30.10R
HOWELL         MOCLDY    69  68  98 CALM      30.07R

CITY           SKY/WX    TMP DP  RH WIND       PRES   REMARKS
JACKSON        MOCLDY    71  68  90 CALM      30.08R
LAMBERTVILLE   CLOUDY    73  70  88 CALM      30.07R
LANSING        CLOUDY    71  67  87 W13       30.08R
LAPEER         NOT AVBL
MASON          CLOUDY    71  69  93 CALM      30.07S
MONROE         MOCLDY    73  70  88 CALM      30.05R
MT. CLEMENS    MOCLDY    71  68  91 W8        30.02R
PONTIAC        MOCLDY    70  67  90 W7        30.05S
PORT HOPE        N/A     68  60  75 NE10      30.04R
PORT HURON     CLOUDY    70  68  94 W3        30.02R
TRI CITIES     PTCLDY    76  67  73 NW5       30.05R
YPSILANTI      MOCLDY    75  69  81 SW3       30.07R
$$
MIZ043>046-050>051-056>058-064>065-071>073-077>080-270200-
SOUTHWEST LOWER MICHIGAN

CITY           SKY/WX    TMP DP  RH WIND       PRES   REMARKS
BATTLE CREEK   CLOUDY    72  68  87 W3        30.08F
BENTON HARBOR  PTCLDY    67  65  93 CALM      30.07F
BIG RAPIDS     PTCLDY    67  62  81 N7        30.08R
COLDWATER      PTCLDY    72  70  95 CALM      30.08F
HOLLAND        CLEAR     68  62  81 CALM      30.09S
GRAND RAPIDS   PTCLDY    70  65  84 W8        30.08R
KALAMAZOO      MOCLDY    72  68  87 NW5       30.08F
MARSHALL       CLEAR     69  68  97 CALM      30.07S
MUSKEGON       PTCLDY    68  59  73 NW3       30.08S
$$
MIZ016>042-270200-
NORTHERN LOWER MICHIGAN

CITY           SKY/WX    TMP DP  RH WIND       PRES   REMARKS
ALPENA         CLEAR     62  55  77 N9        30.07R
BEAVER ISLAND  CLEAR     60  58  93 CALM      30.08S
BELLAIRE       CLEAR     60  57  89 CALM      30.08R
CADILLAC       CLEAR     63  59  86 NW3       30.09S
CHARLEVOIX     CLEAR     64  58  78 CALM      30.11R
FRANKFORT      CLEAR     63  58  82 CALM      30.08F
GAYLORD        CLEAR     62  56  80 CALM      30.09R
GRAYLING       CLEAR     64  59  84 CALM      30.10R
HARBOR SPRINGS CLEAR     63  57  81 CALM      30.08R
HOUGHTON LAKE  CLEAR     66  59  78 NW7       30.08R
MANISTEE       CLEAR     64  55  72 CALM      30.09S
OSCODA         CLOUDY    68  60  77 NE6       30.04R
PELLSTON       CLEAR     57  54  89 CALM      30.08R
TRAVERSE CITY  PTCLDY    67  57  70 N5        30.07R
$$
MIZ007>008-015-270200-
EASTERN UPPER MICHIGAN

CITY           SKY/WX    TMP DP  RH WIND       PRES   REMARKS
KINROSS        CLEAR     55  54  94 NW6       30.08S
MACKINAC ISLAN MOCLDY    59  53  79 NE8       30.08R
NEWBERRY       CLEAR     55  49  80 NW7       30.09S
S. S. MARIE    CLEAR     56  50  80 NW7       30.08S
$$
MIZ004>006-011>014-085-270200-
CENTRAL UPPER MICHIGAN

CITY           SKY/WX    TMP DP  RH WIND       PRES   REMARKS
MANISTIQUE     CLEAR     59  51  74 N8        30.09R
ESCANABA       CLEAR     63  55  77 CALM      30.08S
MENOMINEE      CLEAR     64  55  72 CALM      30.08R
SAWYER-GWINN   CLEAR     57  50  77 NW3       30.12R
$$
MIZ001>003-009>011-084-270200-
WESTERN UPPER MICHIGAN

CITY           SKY/WX    TMP DP  RH WIND       PRES   REMARKS
IRON MOUNTAIN  CLEAR     63  52  67 N7        30.10R
HOUGHTON       MOCLDY    57  47  69 W7        30.12R
COPPER HARBOR    N/A     61  47  59 VRB6      30.09R
$$

ABBREVIATIONS USED IN REMARKS
   TC - TEMPERATURE IN CELSIUS
  WCI - WIND CHILL INDEX
   HX - HEAT INDEX
  VSB - VISIBILITY



USA.gov is the U.S. government's official web portal to all federal, state and local government web resources and services.